When you browse on this site, cookies collect data to enhance your experience and personalize the content and advertising you see.
Visit our Privacy Policy to learn more. By continuing to use the site, you agree to this use of cookies and data.
  • In Slovakia
  • List of Countries
  • For 7 days
  • Water Temperature
  • Weather Map
  • Weather Widgets
  • user-avatar
    Login

    Hourly Weather Escaldes-Engordany

    Today, 5 June, Friday

    Time Temperature Precipitation Wind Pressure Humidity
    00:00 +5°C° 0 mm 2 mps 631 mmHg 92%
    01:00 +5°C° 0 mm 2 mps 631 mmHg 92%
    02:00 +5°C° 0 mm 2 mps 631 mmHg 92%
    03:00 +5°C° 0 mm 2 mps 631 mmHg 92%
    04:00 +5°C° 0.1 mm 2 mps 631 mmHg 90%
    05:00 +6°C° 0.1 mm 2 mps 632 mmHg 89%
    06:00 +6°C° 0.1 mm 2 mps 632 mmHg 88%
    07:00 +8°C° 0 mm 2 mps 633 mmHg 79%
    08:00 +9°C° 0 mm 2 mps 634 mmHg 70%
    09:00 +12°C° 0 mm 2 mps 635 mmHg 62%
    10:00 +13°C° 0 mm 2 mps 635 mmHg 59%
    11:00 +15°C° 0 mm 2 mps 636 mmHg 56%
    12:00 +16°C° 0 mm 2 mps 636 mmHg 53%
    13:00 +16°C° 0 mm 2 mps 637 mmHg 54%
    14:00 +17°C° 0 mm 2 mps 637 mmHg 55%
    15:00 +17°C° 0 mm 2 mps 637 mmHg 56%
    16:00 +16°C° 0 mm 2 mps 636 mmHg 63%
    17:00 +15°C° 0 mm 1 mps 636 mmHg 71%
    18:00 +14°C° 0 mm 1 mps 636 mmHg 78%
    19:00 +13°C° 0 mm 1 mps 636 mmHg 83%
    20:00 +12°C° 0 mm 1 mps 636 mmHg 88%
    21:00 +9°C° 0 mm 0 mps 636 mmHg 93%
    22:00 +9°C° 0 mm 0 mps 636 mmHg 94%
    23:00 +8°C° 0 mm 0 mps 635 mmHg 94%

    Tomorrow, 6 June, Saturday

    Time Temperature Precipitation Wind Pressure Humidity
    00:00 +8°C° 0 mm 0 mps 635 mmHg 95%
    01:00 +8°C° 0 mm 0 mps 635 mmHg 95%
    02:00 +8°C° 0 mm 0 mps 635 mmHg 94%
    03:00 +8°C° 0 mm 0 mps 635 mmHg 94%
    04:00 +9°C° 0 mm 0 mps 635 mmHg 92%
    05:00 +10°C° 0 mm 0 mps 636 mmHg 90%
    06:00 +11°C° 0 mm 0 mps 636 mmHg 88%
    07:00 +13°C° 0 mm 1 mps 636 mmHg 80%
    08:00 +15°C° 0 mm 1 mps 637 mmHg 72%
    09:00 +16°C° 0 mm 2 mps 637 mmHg 65%
    10:00 +16°C° 0.2 mm 2 mps 637 mmHg 68%
    11:00 +16°C° 0.2 mm 2 mps 637 mmHg 71%
    12:00 +16°C° 0.2 mm 2 mps 637 mmHg 73%
    13:00 +16°C° 0.8 mm 2 mps 636 mmHg 77%
    14:00 +15°C° 0.8 mm 2 mps 636 mmHg 81%
    15:00 +15°C° 0.8 mm 2 mps 635 mmHg 85%
    16:00 +14°C° 1.3 mm 2 mps 635 mmHg 87%
    17:00 +14°C° 1.3 mm 1 mps 635 mmHg 89%
    18:00 +13°C° 1.3 mm 1 mps 634 mmHg 90%
    19:00 +13°C° 1.1 mm 1 mps 634 mmHg 92%
    20:00 +12°C° 1.1 mm 1 mps 634 mmHg 94%
    21:00 +11°C° 1.1 mm 1 mps 634 mmHg 96%
    22:00 +11°C° 0.7 mm 1 mps 634 mmHg 96%
    23:00 +9°C° 0.7 mm 0 mps 634 mmHg 96%

    Day after tomorrow, 7 June, Sunday

    Time Temperature Precipitation Wind Pressure Humidity
    00:00 +9°C° 0.7 mm 0 mps 634 mmHg 96%
    01:00 +9°C° 0.1 mm 0 mps 633 mmHg 95%
    02:00 +9°C° 0.1 mm 0 mps 633 mmHg 95%
    03:00 +9°C° 0.1 mm 0 mps 633 mmHg 94%
    04:00 +9°C° 0.4 mm 0 mps 633 mmHg 94%
    05:00 +9°C° 0.4 mm 0 mps 634 mmHg 94%
    06:00 +10°C° 0.4 mm 0 mps 634 mmHg 94%
    07:00 +11°C° 1 mm 1 mps 634 mmHg 93%
    08:00 +11°C° 1 mm 1 mps 635 mmHg 91%
    09:00 +12°C° 1 mm 2 mps 635 mmHg 90%
    10:00 +11°C° 1.9 mm 1 mps 635 mmHg 91%
    11:00 +11°C° 1.9 mm 1 mps 635 mmHg 92%
    12:00 +11°C° 1.9 mm 1 mps 635 mmHg 93%
    13:00 +8°C° 2.7 mm 2 mps 635 mmHg 94%
    14:00 +7°C° 2.7 mm 2 mps 634 mmHg 94%
    15:00 +6°C° 2.7 mm 2 mps 634 mmHg 95%
    16:00 +6°C° 0.8 mm 2 mps 634 mmHg 95%
    17:00 +6°C° 0.8 mm 2 mps 634 mmHg 95%
    18:00 +6°C° 0.8 mm 2 mps 634 mmHg 95%
    19:00 +6°C° 0.4 mm 2 mps 634 mmHg 95%
    20:00 +6°C° 0.4 mm 2 mps 635 mmHg 95%
    21:00 +6°C° 0.4 mm 1 mps 635 mmHg 95%
    22:00 +6°C° 0.1 mm 1 mps 635 mmHg 94%
    23:00 +6°C° 0.1 mm 1 mps 635 mmHg 93%

    8 June, Monday

    Time Temperature Precipitation Wind Pressure Humidity
    00:00 +5°C° 0.1 mm 1 mps 634 mmHg 92%
    01:00 +5°C° 0 mm 1 mps 634 mmHg 92%
    02:00 +4°C° 0 mm 2 mps 634 mmHg 93%
    03:00 +4°C° 0 mm 2 mps 634 mmHg 94%
    04:00 +4°C° 0 mm 2 mps 634 mmHg 93%
    05:00 +5°C° 0 mm 2 mps 635 mmHg 92%
    06:00 +5°C° 0 mm 2 mps 635 mmHg 91%
    07:00 +7°C° 0 mm 2 mps 636 mmHg 83%
    08:00 +8°C° 0 mm 2 mps 636 mmHg 75%
    09:00 +9°C° 0 mm 2 mps 637 mmHg 67%
    10:00 +10°C° 0 mm 2 mps 637 mmHg 63%
    11:00 +12°C° 0 mm 2 mps 637 mmHg 59%
    12:00 +13°C° 0 mm 2 mps 637 mmHg 55%
    13:00 +13°C° 0 mm 2 mps 637 mmHg 57%
    14:00 +13°C° 0 mm 2 mps 637 mmHg 59%
    15:00 +13°C° 0 mm 2 mps 637 mmHg 61%
    16:00 +12°C° 0.1 mm 2 mps 637 mmHg 66%
    17:00 +10°C° 0.1 mm 2 mps 637 mmHg 70%
    18:00 +10°C° 0.1 mm 2 mps 637 mmHg 74%
    19:00 +8°C° 0.1 mm 2 mps 637 mmHg 80%
    20:00 +7°C° 0.1 mm 2 mps 637 mmHg 86%
    21:00 +6°C° 0.1 mm 2 mps 637 mmHg 92%
    22:00 +5°C° 0 mm 2 mps 636 mmHg 92%
    23:00 +5°C° 0 mm 2 mps 636 mmHg 91%

    9 June, Tuesday

    Time Temperature Precipitation Wind Pressure Humidity
    00:00 +4°C° 0 mm 2 mps 636 mmHg 91%
    01:00 +4°C° 0 mm 2 mps 636 mmHg 90%
    02:00 +4°C° 0 mm 2 mps 636 mmHg 88%
    03:00 +4°C° 0 mm 2 mps 636 mmHg 87%
    04:00 +6°C° 0 mm 1 mps 636 mmHg 84%
    05:00 +7°C° 0 mm 1 mps 637 mmHg 80%
    06:00 +8°C° 0 mm 1 mps 638 mmHg 77%
    07:00 +10°C° 0 mm 1 mps 638 mmHg 70%
    08:00 +12°C° 0 mm 1 mps 639 mmHg 64%
    09:00 +14°C° 0 mm 1 mps 640 mmHg 57%
    10:00 +14°C° 0 mm 1 mps 640 mmHg 56%
    11:00 +14°C° 0 mm 1 mps 640 mmHg 56%
    12:00 +15°C° 0 mm 1 mps 640 mmHg 55%
    13:00 +15°C° 0.3 mm 1 mps 640 mmHg 59%
    14:00 +14°C° 0.3 mm 1 mps 639 mmHg 64%
    15:00 +14°C° 0.3 mm 1 mps 639 mmHg 68%
    16:00 +14°C° 0.5 mm 1 mps 639 mmHg 74%
    17:00 +13°C° 0.5 mm 1 mps 639 mmHg 80%
    18:00 +12°C° 0.5 mm 1 mps 639 mmHg 87%
    19:00 +11°C° 0.2 mm 1 mps 639 mmHg 89%
    20:00 +10°C° 0.2 mm 1 mps 639 mmHg 91%
    21:00 +9°C° 0.2 mm 1 mps 639 mmHg 93%
    22:00 +9°C° 0 mm 1 mps 639 mmHg 93%
    23:00 +8°C° 0 mm 1 mps 639 mmHg 94%

    10 June, Wednesday

    Time Temperature Precipitation Wind Pressure Humidity
    00:00 +8°C° 0 mm 1 mps 639 mmHg 94%
    01:00 +8°C° 0 mm 1 mps 639 mmHg 94%
    02:00 +7°C° 0 mm 1 mps 638 mmHg 94%
    03:00 +7°C° 0 mm 1 mps 638 mmHg 94%
    04:00 +8°C° 0 mm 1 mps 639 mmHg 93%
    05:00 +8°C° 0 mm 1 mps 639 mmHg 92%
    06:00 +9°C° 0 mm 1 mps 639 mmHg 91%
    07:00 +10°C° 0 mm 1 mps 640 mmHg 85%
    08:00 +11°C° 0 mm 1 mps 640 mmHg 80%
    09:00 +13°C° 0 mm 1 mps 641 mmHg 75%
    10:00 +13°C° 0.1 mm 1 mps 641 mmHg 72%
    11:00 +14°C° 0.1 mm 1 mps 641 mmHg 70%
    12:00 +15°C° 0.1 mm 2 mps 641 mmHg 67%
    13:00 +14°C° 0.3 mm 1 mps 641 mmHg 71%
    14:00 +14°C° 0.3 mm 1 mps 640 mmHg 75%
    15:00 +13°C° 0.3 mm 1 mps 640 mmHg 79%
    16:00 +13°C° 0.3 mm 1 mps 640 mmHg 82%
    17:00 +12°C° 0.3 mm 1 mps 639 mmHg 84%
    18:00 +12°C° 0.3 mm 1 mps 639 mmHg 87%
    19:00 +11°C° 0.1 mm 1 mps 639 mmHg 90%
    20:00 +9°C° 0.1 mm 0 mps 639 mmHg 92%
    21:00 +8°C° 0.1 mm 0 mps 639 mmHg 95%
    22:00 +8°C° 0 mm 0 mps 639 mmHg 95%
    23:00 +8°C° 0 mm 0 mps 638 mmHg 96%
    Show more